Orr, MN

6:04 AM CST on January 18, 2018 (GMT -0600)
Orr Regional

Weather History for KORB - March, 2012

Change the Weather History Date:

Wednesday, March 7, 2012

  Actual Average Record
Temperature  
Mean Temperature 27 °F -  
Max Temperature 33 °F 23 °F 53 °F (2016)
Min Temperature 21 °F 4 °F -25 °F (2008)
Degree Days  
Heating Degree Days 38    
Moisture  
Dew Point 24 °F    
Average Humidity 79    
Maximum Humidity 93    
Minimum Humidity 64    
Precipitation  
Precipitation 0.00 in - - ()
Sea Level Pressure  
Sea Level Pressure 29.60 in    
Wind  
Wind Speed 5 mph (NW)    
Max Wind Speed 14 mph    
Max Gust Speed 21 mph    
Visibility 9 miles    
Events Snow    
Averages and records for this station are not official NWS values.
T = Trace of Precipitation, MM = Missing Value Source: NWS Daily Summary

Daily Weather History Graph

Daily Weather History Graph

Search for Another Location

Airport or City:

Trip Planner

Search our weather history database for the weather conditions in past years. The results will help you decide how hot, cold, wet, or windy it might be!

Date:

Astronomy

Mar. 07, 2012 Rise Set
Actual Time 6:39 AM CST 6:05 PM CST
Civil Twilight 6:08 AM CST 6:36 PM CST
Nautical Twilight 5:32 AM CST 7:12 PM CST
Astronomical Twilight 4:56 AM CST 7:49 PM CST
Moon 5:44 PM CST (3/7) 5:50 AM CST (3/7)
Length of Visible Light 12h 28m
Length of Day
11h 26m
Waxing Gibbous, 99% of the Moon is Illuminated
Mar 7
Waxing Gibbous
Mar 8
Full
Mar 14
Last Quarter
Mar 22
New
Mar 30
First Quarter

Hourly Weather History & Observations

Time (CST) Temp. Windchill Dew Point Humidity Pressure Visibility Wind Dir Wind Speed Gust Speed Precip Events Conditions
12:14 AM 33.8 °F 30.8 °F 26.6 °F 75% 29.51 in 10.0 mi ESE 3.5 mph - N/A   Clear
12:54 AM 32.0 °F 27.5 °F 26.6 °F 80% 29.54 in 10.0 mi South 4.6 mph - N/A   Clear
1:14 AM 33.8 °F - 26.6 °F 75% 29.53 in 10.0 mi Calm Calm - N/A   Clear
1:54 AM 32.0 °F - 26.6 °F 80% 29.53 in 10.0 mi Calm Calm - N/A   Clear
2:15 AM 33.8 °F - 26.6 °F 75% 29.52 in 10.0 mi Calm Calm - N/A   Scattered Clouds
2:35 AM 33.8 °F - 26.6 °F 75% 29.51 in 10.0 mi Calm Calm - N/A   Scattered Clouds
2:55 AM 30.2 °F - 26.6 °F 86% 29.53 in 10.0 mi Calm Calm - N/A   Scattered Clouds
3:14 AM 30.2 °F - 26.6 °F 86% 29.51 in 10.0 mi Calm Calm - N/A   Mostly Cloudy
3:34 AM 30.2 °F - 26.6 °F 86% 29.52 in 10.0 mi Calm Calm - N/A   Mostly Cloudy
3:55 AM 30.2 °F - 26.6 °F 86% 29.50 in 10.0 mi Calm Calm - N/A   Mostly Cloudy
4:14 AM 32.0 °F 28.7 °F 26.6 °F 80% 29.50 in 10.0 mi NNW 3.5 mph - N/A   Scattered Clouds
4:34 AM 30.2 °F - 26.6 °F 86% 29.50 in 10.0 mi Calm Calm - N/A   Clear
4:54 AM 28.4 °F - 24.8 °F 86% 29.51 in 10.0 mi Calm Calm - N/A   Clear
5:15 AM 28.4 °F - 24.8 °F 86% 29.52 in 10.0 mi Calm Calm - N/A   Clear
5:35 AM 28.4 °F - 26.6 °F 93% 29.52 in 10.0 mi Calm Calm - N/A   Clear
5:54 AM 28.4 °F - 26.6 °F 93% 29.52 in 10.0 mi Calm Calm - N/A   Clear
6:34 AM 30.2 °F 26.7 °F 26.6 °F 86% 29.54 in 10.0 mi WNW 3.5 mph - N/A   Clear
6:54 AM 30.2 °F 24.3 °F 26.6 °F 86% 29.54 in 10.0 mi WNW 5.8 mph - N/A   Clear
7:14 AM 30.2 °F 24.3 °F 26.6 °F 86% 29.55 in 10.0 mi WNW 5.8 mph - N/A   Clear
7:34 AM 30.2 °F 24.3 °F 26.6 °F 86% 29.55 in 10.0 mi NW 5.8 mph - N/A   Clear
7:54 AM 30.2 °F 24.3 °F 26.6 °F 86% 29.55 in 10.0 mi NW 5.8 mph - N/A   Clear
8:14 AM 30.2 °F 24.3 °F 26.6 °F 86% 29.55 in 10.0 mi NW 5.8 mph - N/A   Clear
8:36 AM 32.0 °F 25.6 °F 26.6 °F 80% 29.55 in 10.0 mi NW 6.9 mph - N/A   Scattered Clouds
8:54 AM 32.0 °F 24.8 °F 28.4 °F 87% 29.55 in 10.0 mi NW 8.1 mph - N/A   Mostly Cloudy
9:21 AM 33.8 °F 28.6 °F 28.4 °F 81% 29.55 in 10.0 mi NW 5.8 mph - N/A   Overcast
9:35 AM 33.8 °F 27.0 °F 28.4 °F 81% 29.57 in 10.0 mi NW 8.1 mph - N/A   Overcast
9:55 AM 33.8 °F 28.6 °F 28.4 °F 81% 29.57 in 10.0 mi NW 5.8 mph - N/A   Overcast
10:14 AM 33.8 °F 26.4 °F 28.4 °F 81% 29.58 in 10.0 mi NW 9.2 mph - N/A   Overcast
10:34 AM 33.8 °F 25.3 °F 26.6 °F 75% 29.58 in 10.0 mi NW 11.5 mph - N/A   Overcast
10:54 AM 33.8 °F 26.4 °F 28.4 °F 81% 29.58 in 7.0 mi NW 9.2 mph - N/A Snow Light Snow
11:15 AM 32.0 °F 24.2 °F 28.4 °F 87% 29.58 in 3.0 mi NW 9.2 mph - N/A Snow Light Snow
11:34 AM 32.0 °F 23.6 °F 26.6 °F 80% 29.59 in 10.0 mi NW 10.4 mph - N/A   Overcast
11:54 AM 32.0 °F 24.2 °F 26.6 °F 80% 29.59 in 10.0 mi NW 9.2 mph - N/A   Overcast
12:14 PM 32.0 °F 23.0 °F 26.6 °F 80% 29.59 in 10.0 mi NW 11.5 mph 16.1 mph N/A   Overcast
12:34 PM 33.8 °F 26.4 °F 26.6 °F 75% 29.59 in 10.0 mi NW 9.2 mph 17.3 mph N/A   Mostly Cloudy
12:54 PM 32.0 °F 23.0 °F 26.6 °F 80% 29.60 in 4.0 mi NW 11.5 mph 16.1 mph N/A Snow Light Snow
1:14 PM 30.2 °F 20.2 °F 24.8 °F 80% 29.61 in 5.0 mi NW 12.7 mph 17.3 mph N/A   Haze
1:35 PM 30.2 °F 20.8 °F 24.8 °F 80% 29.62 in 1.5 mi NW 11.5 mph - N/A Snow Light Snow
1:54 PM 30.2 °F 21.9 °F 26.6 °F 86% 29.62 in 4.0 mi NW 9.2 mph - N/A Snow Light Snow
2:14 PM 30.2 °F 20.2 °F 24.8 °F 80% 29.62 in 10.0 mi NW 12.7 mph 17.3 mph N/A   Overcast
2:34 PM 28.4 °F 17.5 °F 23.0 °F 80% 29.63 in 10.0 mi NW 13.8 mph - N/A   Overcast
2:54 PM 28.4 °F 18.5 °F 23.0 °F 80% 29.64 in 7.0 mi NW 11.5 mph 20.7 mph N/A Snow Light Snow
3:14 PM 28.4 °F 19.1 °F 21.2 °F 74% 29.65 in 10.0 mi NW 10.4 mph 16.1 mph N/A   Overcast
3:34 PM 28.4 °F 20.4 °F 21.2 °F 74% 29.65 in 10.0 mi NW 8.1 mph 18.4 mph N/A   Overcast
3:54 PM 28.4 °F 18.0 °F 21.2 °F 74% 29.65 in 10.0 mi NW 12.7 mph 18.4 mph N/A   Overcast
4:15 PM 28.4 °F 18.5 °F 21.2 °F 74% 29.66 in 10.0 mi NW 11.5 mph 17.3 mph N/A   Overcast
4:54 PM 26.6 °F 15.7 °F 19.4 °F 74% 29.67 in 10.0 mi NW 12.7 mph 19.6 mph N/A   Overcast
5:14 PM 26.6 °F 17.5 °F 17.6 °F 69% 29.69 in 10.0 mi NW 9.2 mph - N/A   Overcast
5:35 PM 26.6 °F 22.6 °F 17.6 °F 69% 29.70 in 10.0 mi NNW 3.5 mph - N/A   Mostly Cloudy
5:54 PM 26.6 °F 19.1 °F 17.6 °F 69% 29.72 in 10.0 mi NW 6.9 mph - N/A   Mostly Cloudy
6:34 PM 26.6 °F 21.2 °F 15.8 °F 64% 29.74 in 10.0 mi NNW 4.6 mph - N/A   Overcast
6:54 PM 24.8 °F 16.9 °F 15.8 °F 69% 29.74 in 10.0 mi NW 6.9 mph - N/A   Mostly Cloudy
7:15 PM 24.8 °F 16.9 °F 15.8 °F 69% 29.76 in 10.0 mi NW 6.9 mph - N/A   Scattered Clouds
7:34 PM 24.8 °F 16.1 °F 14.0 °F 64% 29.78 in 10.0 mi NW 8.1 mph - N/A   Scattered Clouds
7:54 PM 24.8 °F 16.9 °F 14.0 °F 64% 29.79 in 10.0 mi NW 6.9 mph - N/A   Clear
8:14 PM 21.2 °F 13.6 °F 14.0 °F 74% 29.80 in 10.0 mi WNW 5.8 mph - N/A   Clear
8:34 PM 21.2 °F 13.6 °F 14.0 °F 74% 29.81 in 10.0 mi NW 5.8 mph - N/A   Clear
8:54 PM 21.2 °F 12.6 °F 14.0 °F 74% 29.82 in 10.0 mi WNW 6.9 mph - N/A   Clear
9:14 PM 21.2 °F 11.7 °F 14.0 °F 74% 29.83 in 10.0 mi WNW 8.1 mph - N/A   Clear
9:34 PM 21.2 °F 13.6 °F 12.2 °F 68% 29.84 in 10.0 mi WNW 5.8 mph - N/A   Clear
9:54 PM 19.4 °F 10.4 °F 12.2 °F 74% 29.85 in 10.0 mi NW 6.9 mph - N/A   Clear
10:15 PM 19.4 °F 11.5 °F 12.2 °F 74% 29.85 in 10.0 mi NW 5.8 mph - N/A   Clear
10:34 PM 19.4 °F 11.5 °F 12.2 °F 74% 29.85 in 10.0 mi NW 5.8 mph - N/A   Clear
10:55 PM 17.6 °F 10.7 °F 12.2 °F 79% 29.85 in 10.0 mi NW 4.6 mph - N/A   Clear
11:34 PM 17.6 °F 8.2 °F 10.4 °F 73% 29.86 in 10.0 mi NW 6.9 mph - N/A   Clear
11:54 PM 17.6 °F 7.3 °F 10.4 °F 73% 29.87 in 10.0 mi NW 8.1 mph - N/A   Mostly Cloudy